Location: Newark
(48.3453°N, 0.5589°E)
Time: 11:49:39
(UTC+00:00)

A-11 Canister half - Pass Details

Date: 06 December 2019
Orbit: 1517 x 1683 km, 47.2° (Epoch: 26 January)

Event Time Altitude Azimuth Distance (km) Brightness Sun altitude
Rises 19:49:23 0° 291° (WNW) 4,911 12.6 -36.5°
Reaches altitude 10° 19:52:54 10° 282° (WNW) 3,934 11.9 -37.1°
Maximum altitude 20:01:33 34° 223° (SW) 2,528 10.2 -38.5°
Enters shadow 20:05:28 26° 187° (S) 2,876 10.3 -39.1°
Drops below altitude 10° 20:10:12 10° 164° (SSE) 3,927 - -39.9°
Sets 20:13:44 0° 156° (SSE) 4,900 - -40.5°
